Total_Precipitation_Accumulation
0.81 0.83 0.92 1.00 1.03 1.13 1.22 1.21 1.19 1.26 1.32 1.31 1.30 1.29 1.28 1.33 1.45 1.58 1.63 1.67 1.71 1.66 1.65 1.67 1.64 1.60 1.62 1.58 1.55 1.52 1.54 1.74 1.73 0.94 0.67 0.72 0.85 0.91 0.93 0.91 0.91 0.96 1.01
0.84 0.85 0.87 0.99 1.04 1.09 1.17 1.25 1.24 1.26 1.31 1.31 1.31 1.29 1.21 1.20 1.28 1.39 1.47 1.53 1.61 1.58 1.56 1.60 1.57 1.57 1.61 1.62 1.66 1.63 1.58 1.61 1.74 1.37 0.91 0.85 0.91 0.94 0.98 1.00 0.94 0.93 0.95
0.78 0.87 0.88 0.92 1.01 1.12 1.19 1.25 1.25 1.23 1.28 1.31 1.33 1.33 1.28 1.24 1.28 1.31 1.34 1.39 1.42 1.43 1.43 1.48 1.50 1.56 1.60 1.58 1.59 1.61 1.56 1.50 1.55 1.56 1.17 0.96 0.99 1.02 1.09 1.11 1.09 1.08 1.03
0.81 0.82 0.92 0.99 1.00 1.06 1.16 1.22 1.29 1.30 1.29 1.32 1.33 1.35 1.36 1.37 1.49 1.48 1.39 1.37 1.30 1.28 1.29 1.35 1.43 1.54 1.62 1.70 1.79 1.70 1.63 1.70 1.71 1.72 1.46 1.18 1.09 1.07 1.24 1.31 1.29 1.22 1.16
0.99 0.97 0.94 1.00 1.02 1.00 1.06 1.11 1.18 1.27 1.28 1.26 1.23 1.25 1.30 1.42 1.73 1.77 1.58 1.45 1.35 1.28 1.23 1.23 1.28 1.51 1.77 2.00 2.13 2.06 2.02 2.11 2.06 2.03 1.81 1.49 1.30 1.29 1.35 1.33 1.40 1.30 1.26
1.11 1.12 1.01 0.98 0.99 1.01 1.04 1.06 1.09 1.15 1.17 1.17 1.15 1.15 1.24 1.40 1.86 1.96 1.76 1.48 1.40 1.36 1.31 1.26 1.26 1.38 1.51 1.72 1.97 2.04 2.12 2.26 2.34 2.29 2.11 1.82 1.43 1.30 1.35 1.53 1.69 1.73 1.58
1.14 1.20 1.16 1.03 0.97 0.98 0.99 0.99 0.99 1.01 1.05 1.06 1.06 1.09 1.10 1.30 1.79 1.83 1.67 1.37 1.27 1.28 1.24 1.17 1.19 1.20 1.31 1.22 1.38 1.51 1.58 1.80 2.07 2.24 2.29 1.85 1.53 1.41 1.65 1.91 1.93 1.93 1.66
1.17 1.16 1.12 1.03 0.93 0.95 0.99 0.95 0.89 0.90 0.95 0.98 1.00 1.02 1.01 1.08 1.53 1.77 1.63 1.22 1.14 1.20 1.20 1.18 1.17 1.14 1.17 1.30 1.37 1.38 1.26 1.28 1.53 1.78 1.92 1.75 1.65 1.67 1.94 2.28 2.44 2.49 2.10
1.08 1.07 1.04 1.00 0.95 0.98 1.03 0.97 0.89 0.88 0.91 0.90 0.91 0.95 0.97 1.00 1.31 1.72 1.78 1.31 1.25 1.21 1.21 1.33 1.38 1.27 1.36 1.61 1.69 1.63 1.39 1.20 1.28 1.63 1.92 1.97 2.04 2.25 2.50 2.90 3.22 3.34 2.97
0.91 0.95 1.00 0.96 0.95 0.99 1.05 1.00 0.96 0.93 0.96 0.97 0.96 0.98 0.98 0.95 1.19 1.63 1.93 1.50 1.42 1.28 1.25 1.38 1.72 1.67 1.69 1.78 1.77 1.80 1.75 1.39 1.25 1.30 1.41 1.52 1.55 1.66 2.08 2.40 2.73 3.12 3.08
0.79 0.82 0.93 0.96 0.94 0.96 1.01 1.04 1.02 1.02 1.04 1.07 1.04 1.01 1.00 0.97 1.05 1.36 1.86 1.74 1.55 1.46 1.43 1.45 1.57 1.74 1.75 1.80 1.86 1.81 1.87 1.79 1.68 1.64 1.54 1.45 1.46 1.58 1.74 1.98 2.26 2.67 2.99
0.76 0.78 0.83 0.92 0.92 0.94 0.97 0.97 0.96 1.03 1.11 1.13 1.12 1.09 1.05 1.03 1.05 1.21 1.57 1.82 1.76 1.54 1.47 1.35 1.44 1.68 1.74 1.79 1.75 1.80 1.93 1.95 1.81 1.76 1.67 1.55 1.48 1.50 1.54 1.68 1.95 2.16 2.36
0.75 0.79 0.84 0.90 0.90 0.89 0.90 0.92 0.90 0.93 1.04 1.11 1.12 1.13 1.10 1.06 1.10 1.27 1.35 1.47 1.61 1.49 1.45 1.65 1.66 1.67 1.62 1.55 1.59 1.68 1.66 1.60 1.67 1.67 1.52 1.35 1.25 1.26 1.37 1.55 1.75 1.95 2.11
0.79 0.84 0.87 0.93 0.96 0.90 0.86 0.86 0.88 0.94 1.12 1.22 1.19 1.15 1.10 1.06 1.13 1.34 1.39 1.36 1.43 1.46 1.46 1.58 1.59 1.47 1.38 1.36 1.44 1.46 1.41 1.48 1.62 1.64 1.49 1.34 1.26 1.31 1.42 1.51 1.70 1.86 2.15
0.79 0.85 0.91 0.95 0.96 0.93 0.88 0.89 0.93 0.98 1.22 1.50 1.45 1.40 1.41 1.40 1.47 1.79 1.79 1.66 1.67 1.70 1.71 1.68 1.55 1.40 1.33 1.25 1.22 1.20 1.23 1.38 1.52 1.49 1.51 1.51 1.47 1.46 1.48 1.49 1.67 1.84 2.04
0.79 0.82 0.88 0.96 0.99 0.94 0.89 0.91 0.96 0.99 1.10 1.14 1.17 1.31 1.33 1.50 1.67 1.67 1.62 1.60 1.66 1.70 1.73 1.64 1.41 1.29 1.24 1.18 1.19 1.20 1.19 1.23 1.28 1.37 1.48 1.52 1.54 1.56 1.56 1.55 1.70 1.88 1.94
0.82 0.84 0.87 0.90 0.93 0.93 0.90 0.87 0.91 0.92 0.95 0.98 1.01 1.08 1.22 1.40 1.45 1.44 1.49 1.45 1.46 1.47 1.45 1.32 1.23 1.20 1.19 1.17 1.18 1.20 1.19 1.14 1.20 1.35 1.46 1.53 1.57 1.62 1.62 1.63 1.67 1.77 1.82
0.80 0.86 0.88 0.90 0.93 0.92 0.91 0.89 0.87 0.88 0.91 0.94 0.94 0.97 1.07 1.20 1.28 1.33 1.39 1.36 1.34 1.25 1.21 1.23 1.21 1.18 1.17 1.19 1.21 1.22 1.20 1.18 1.23 1.31 1.37 1.41 1.49 1.61 1.63 1.55 1.54 1.67 1.76
0.71 0.79 0.84 0.88 0.90 0.90 0.90 0.89 0.87 0.85 0.86 0.89 0.91 0.96 1.02 1.07 1.15 1.23 1.24 1.19 1.21 1.17 1.14 1.17 1.17 1.21 1.22 1.20 1.18 1.19 1.23 1.26 1.23 1.26 1.28 1.29 1.35 1.50 1.54 1.42 1.45 1.58 1.79
0.66 0.77 0.84 0.85 0.86 0.88 0.90 0.91 0.91 0.92 0.91 0.90 0.93 1.01 1.09 1.15 1.17 1.18 1.15 1.14 1.16 1.13 1.10 1.16 1.14 1.16 1.22 1.25 1.24 1.23 1.26 1.24 1.22 1.23 1.23 1.23 1.28 1.42 1.49 1.42 1.47 1.59 1.67
0.65 0.71 0.78 0.80 0.82 0.86 0.91 0.96 0.97 0.99 1.00 0.96 0.94 0.99 1.30 1.45 1.29 1.13 1.12 1.16 1.22 1.25 1.22 1.19 1.13 1.09 1.12 1.18 1.24 1.25 1.25 1.21 1.17 1.23 1.27 1.27 1.31 1.40 1.39 1.45 1.49 1.54 1.62
0.68 0.72 0.75 0.78 0.82 0.87 0.95 0.96 0.97 0.99 0.98 0.95 0.93 0.95 1.06 1.06 1.04 1.03 1.05 1.11 1.19 1.26 1.29 1.31 1.22 1.09 1.10 1.23 1.31 1.34 1.28 1.17 1.13 1.23 1.32 1.30 1.32 1.38 1.41 1.46 1.47 1.53 1.61
0.73 0.76 0.76 0.76 0.79 0.89 0.92 0.89 0.92 0.96 0.97 0.93 0.91 0.93 0.95 0.97 1.00 1.05 1.09 1.12 1.18 1.22 1.21 1.23 1.22 1.09 1.01 1.10 1.21 1.36 1.42 1.28 1.23 1.38 1.55 1.49 1.40 1.39 1.44 1.47 1.44 1.51 1.54
0.78 0.80 0.81 0.80 0.81 0.84 0.86 0.87 0.90 0.92 0.94 0.95 0.94 0.95 0.96 0.97 0.98 1.03 1.07 1.12 1.17 1.19 1.17 1.17 1.14 1.07 1.02 1.06 1.10 1.14 1.21 1.34 1.58 1.76 1.73 1.73 1.58 1.42 1.43 1.46 1.42 1.41 1.48
0.79 0.80 0.83 0.85 0.87 0.89 0.90 0.87 0.88 0.92 0.94 0.95 0.96 0.95 0.94 0.94 0.96 1.00 1.04 1.10 1.15 1.17 1.12 1.10 1.10 1.07 1.01 0.98 0.99 1.04 1.18 1.41 1.68 2.06 2.29 2.20 1.85 1.55 1.49 1.49 1.43 1.42 1.46
0.78 0.78 0.80 0.83 0.88 0.93 0.97 0.98 0.95 0.96 1.00 0.99 0.97 0.98 0.99 1.00 1.01 1.03 1.06 1.14 1.21 1.19 1.13 1.08 1.04 1.00 0.98 0.98 0.97 1.05 1.24 1.47 1.72 2.03 2.53 2.71 2.25 1.75 1.58 1.60 1.49 1.47 1.52